RH
64 62 60 63 64 67 67 68 71 71 67 70 71 73 78 78 80 89 88 85 77 51 50 56 59 47 48 60 56 45 58 48 38 37 37 32 31 28 35 32 39 43 44 41 41
62 62 64 64 68 69 70 70 71 72 70 70 74 73 79 80 86 91 82 78 75 71 59 59 56 49 62 66 60 56 61 48 41 41 35 32 30 29 32 36 42 42 39 38 44
62 64 65 71 70 73 72 72 71 73 72 72 72 75 78 80 85 87 75 72 77 70 70 52 46 51 71 65 60 53 54 43 37 41 31 33 31 28 32 40 38 43 41 41 45
63 65 68 71 72 72 75 74 78 72 69 68 71 76 77 80 94 87 74 68 73 69 71 59 47 62 70 72 58 47 41 38 40 39 33 33 30 32 31 33 31 37 35 37 41
65 68 70 72 70 69 71 83 75 75 71 72 72 76 79 86 89 74 70 66 68 70 67 59 50 58 63 57 46 47 45 38 37 34 33 29 32 30 29 36 33 33 33 37 42
66 70 70 72 72 71 76 82 82 78 70 67 73 76 74 86 72 72 74 67 74 73 60 55 45 46 50 50 51 44 43 39 36 32 32 32 31 31 30 31 32 32 36 38 48
67 70 71 73 74 71 74 77 81 76 72 67 66 73 76 94 72 77 71 80 70 74 66 51 45 46 47 51 41 43 44 41 38 35 36 34 35 35 27 27 29 30 31 40 49
70 71 72 71 72 73 73 74 78 78 78 69 69 74 96 83 79 67 69 74 64 57 54 52 47 49 42 42 41 46 49 56 42 39 38 37 49 31 28 29 32 30 32 38 47
72 72 73 72 71 73 73 72 70 82 77 70 75 75 96 78 74 76 72 80 64 58 54 37 43 43 42 54 72 58 76 58 49 42 39 39 41 30 27 28 33 33 35 43 50
70 72 77 77 77 79 72 69 64 62 60 67 71 80 77 82 78 69 74 69 68 66 59 49 48 55 54 66 80 67 67 51 54 40 42 40 37 26 25 26 27 30 34 43 51
70 74 76 77 79 78 73 81 81 84 83 97 90 88 86 77 68 64 67 70 66 60 67 56 65 72 58 54 44 43 52 60 56 44 39 41 35 29 26 26 26 25 29 40 48
72 76 76 75 74 78 72 86 91 74 95 80 84 84 86 87 75 68 61 75 67 67 57 72 70 49 44 47 42 43 54 65 53 44 46 40 35 33 29 30 27 27 27 29 44
76 76 76 75 75 74 82 85 79 80 94 90 91 93 94 83 77 72 71 68 72 74 66 72 56 43 38 40 36 46 52 59 57 48 44 39 35 34 35 29 28 29 28 26 38
84 81 77 78 74 71 86 77 76 80 96 100 92 92 88 80 86 55 56 70 81 86 51 53 46 44 47 55 53 48 46 48 52 60 61 39 59 40 32 34 31 31 31 31 37
84 84 79 74 86 79 80 73 73 87 95 97 91 85 82 80 75 63 54 62 69 58 50 68 61 61 61 59 54 47 42 46 49 47 54 46 61 25 36 36 34 36 35 37 47
82 84 79 77 82 75 74 77 81 88 96 100 92 83 75 60 57 55 56 57 48 57 57 67 59 59 59 51 50 43 43 61 69 67 71 59 51 43 43 43 54 48 56 58 60
83 85 80 63 84 73 76 87 89 95 90 93 92 78 69 70 61 50 52 54 73 80 88 66 66 57 54 51 49 48 70 87 62 70 66 66 51 36 50 56 51 58 64 65 64
87 86 77 60 76 75 88 88 91 90 99 74 72 64 70 62 55 51 56 58 51 57 93 88 76 69 57 60 57 66 79 76 55 77 80 60 58 38 52 54 54 57 63 63 70
78 91 87 82 73 82 89 96 96 84 72 73 71 66 64 53 56 54 54 61 63 56 75 86 90 64 59 55 55 55 82 60 66 72 78 75 62 53 56 57 55 62 62 70 65
94 92 85 79 78 92 89 84 79 62 58 62 75 74 64 57 58 52 59 56 61 53 54 61 86 62 59 60 57 58 54 55 81 64 64 82 66 78 71 60 61 59 56 56 68
95 91 85 78 88 83 94 83 67 54 56 63 64 58 56 58 55 56 69 60 54 54 53 48 66 72 60 68 60 57 66 62 65 81 82 75 69 53 63 62 55 53 51 53 57
93 95 87 89 85 94 94 70 66 61 61 62 65 57 59 63 62 77 79 69 56 57 58 53 65 89 73 65 63 69 66 51 68 64 67 68 58 54 56 54 45 42 36 39 37
93 79 86 83 90 91 73 66 63 62 60 58 62 60 57 64 71 72 77 64 60 67 71 67 72 89 71 64 67 67 61 59 57 71 66 62 51 51 59 65 43 39 38 33 33
85 92 87 75 73 68 71 66 70 64 58 52 54 54 61 64 63 76 82 72 65 65 69 67 66 68 57 58 67 76 67 62 60 85 64 65 48 61 60 42 39 36 34 38 34
86 84 75 84 63 67 65 59 64 67 59 53 56 50 52 69 69 77 80 82 73 69 68 60 71 69 60 58 61 66 66 65 66 62 57 56 47 50 48 40 36 37 40 35 36
82 76 74 67 58 66 66 56 56 59 59 53 57 50 54 62 68 72 71 79 79 78 75 58 74 70 71 56 56 58 53 66 65 63 64 65 62 44 38 40 41 44 38 38 43
86 79 66 69 62 59 62 58 58 59 60 53 54 53 63 65 62 65 60 62 67 70 65 59 69 80 66 54 53 39 51 52 70 67 59 62 53 42 44 37 41 45 44 48 50
Wind_Speed
14 14 16 16 16 16 11 13 14 15 12 10 7 8 8 10 6 4 6 2 3 5 3 2 4 6 2 2 1 3 3 2 2 9 6 5 6 3 4 9 6 5 4 8 12
13 14 16 16 16 14 14 16 16 14 11 9 9 10 9 9 6 6 4 3 4 8 2 4 5 5 2 4 1 4 3 1 2 2 8 6 9 6 7 5 6 9 8 10 10
13 14 15 16 12 14 15 15 14 14 9 11 11 14 7 11 6 4 2 5 5 6 5 3 5 4 3 4 4 3 1 6 6 6 8 7 6 4 11 2 7 13 11 9 7
13 14 14 14 14 16 15 16 14 7 5 3 10 13 11 9 6 2 6 5 4 7 4 3 4 4 3 5 3 5 5 4 7 9 6 6 6 7 4 2 10 15 13 8 8
13 13 15 15 15 17 19 20 8 8 6 5 6 12 8 4 2 3 6 7 2 3 4 4 4 6 4 4 5 4 1 5 4 9 8 10 7 6 4 6 13 13 11 10 9
13 14 14 15 16 16 14 19 5 7 5 2 1 6 4 7 1 4 6 5 5 1 5 3 6 10 4 6 5 5 7 3 7 6 7 7 4 5 2 5 11 11 10 9 10
13 14 15 13 13 13 11 18 17 9 5 2 1 1 3 4 4 3 4 2 3 5 3 4 6 5 3 5 6 8 7 6 7 5 4 2 4 2 6 6 9 9 7 8 9
11 13 13 13 12 13 11 7 16 16 14 8 7 4 4 5 7 2 3 4 4 2 1 9 7 5 5 4 5 5 6 5 3 4 3 4 3 4 7 9 8 7 7 7 6
12 14 13 14 12 10 9 15 11 14 14 9 7 3 4 7 2 2 5 3 1 2 5 9 4 4 4 7 5 1 5 5 2 1 2 1 1 4 6 7 7 7 7 7 6
12 13 14 16 15 8 7 4 17 9 4 9 1 4 2 3 2 2 2 3 6 4 7 3 1 4 3 5 7 4 6 5 6 5 3 3 1 6 8 7 9 8 8 8 9
12 14 15 16 18 17 3 4 4 6 8 6 4 5 2 3 2 3 3 1 5 4 5 2 7 6 6 5 6 7 6 8 3 2 3 6 4 8 8 6 8 8 9 9 11
12 13 14 15 15 15 4 5 1 4 4 12 11 4 3 3 4 5 1 4 5 11 3 6 4 5 7 7 4 3 10 4 3 3 2 6 8 7 9 8 10 11 9 10 6
12 12 13 16 12 5 5 3 6 3 5 5 4 4 4 5 3 6 3 5 11 7 5 6 3 2 4 5 3 3 9 6 7 4 1 2 7 5 7 7 7 6 6 6 10
12 13 14 17 3 1 3 2 2 2 4 7 6 3 3 1 5 2 3 3 5 9 5 4 1 2 5 4 2 6 2 8 12 5 4 3 5 5 5 5 6 8 7 5 6
12 11 12 6 2 3 4 2 3 1 5 9 4 4 4 1 6 6 4 2 6 3 7 4 2 5 8 1 1 4 5 8 5 4 6 2 6 8 2 2 2 4 7 6 3
12 10 10 1 0 3 3 2 3 6 6 5 5 2 4 7 1 2 4 5 7 8 10 3 2 5 2 4 1 6 7 9 6 4 4 2 6 6 2 4 2 4 6 6 5
11 9 5 2 2 1 2 3 6 7 1 6 6 6 9 7 5 5 9 6 2 6 5 7 6 4 4 6 8 7 7 4 6 5 6 5 3 8 1 2 5 7 5 5 5
8 7 5 2 0 3 3 4 11 5 4 1 2 6 6 7 4 2 1 6 8 6 4 5 5 5 7 2 5 3 6 7 8 5 5 4 5 5 4 4 6 7 6 5 4
8 2 2 3 4 4 4 7 5 4 3 1 2 2 3 2 2 3 5 4 2 3 4 6 3 2 4 3 2 2 1 3 7 4 5 3 3 5 2 4 5 5 4 4 4
2 3 2 6 4 3 5 5 4 2 1 5 2 3 1 2 3 2 3 2 3 1 1 4 7 1 2 2 3 2 3 4 4 4 2 5 3 5 1 4 5 5 4 3 2
2 3 2 4 3 4 5 2 3 2 1 1 3 4 3 1 3 3 2 4 3 2 4 3 5 2 2 1 4 2 1 2 4 4 6 4 6 4 6 6 7 5 3 2 3
2 3 1 3 5 3 2 2 3 2 1 0 1 4 2 3 5 4 4 2 5 4 3 3 5 3 1 1 1 1 2 4 5 3 1 3 5 2 8 8 6 4 4 4 4
1 3 1 3 4 2 2 2 2 2 2 2 2 2 3 2 4 3 4 1 5 3 1 2 2 4 7 6 4 2 3 2 4 4 3 6 5 4 5 2 2 6 3 4 4
3 4 4 3 1 6 3 2 3 1 2 1 1 2 1 2 2 4 3 1 2 2 2 0 3 5 7 5 5 4 5 4 5 4 4 5 5 5 4 4 3 3 6 4 4
2 2 4 2 5 2 2 1 2 2 0 0 1 3 2 2 2 4 3 2 1 1 2 3 3 3 2 3 3 1 4 7 6 5 6 4 3 5 8 7 5 5 4 6 6
3 3 4 1 2 3 3 1 2 1 3 0 3 4 5 4 1 2 4 2 3 1 0 2 2 3 1 1 1 2 5 6 7 5 5 3 4 6 4 5 4 4 5 5 4
2 2 4 3 1 3 2 1 2 5 3 3 2 3 4 2 2 2 5 4 4 5 2 2 5 3 2 1 2 6 10 11 6 5 7 8 7 6 4 4 3 4 4 4 4
Wind_Direction
351 347 345 344 342 340 323 321 320 321 305 292 253 196 216 207 175 192 210 352 283 281 201 217 238 251 159 224 263 57 78 196 176 157 178 169 103 17 44 86 57 12 123 147 140
348 347 346 343 353 356 343 324 313 312 296 281 242 190 174 227 180 198 130 262 15 333 230 212 192 223 184 178 134 94 117 310 282 269 159 130 102 126 87 84 52 64 61 107 122
351 347 347 1 358 348 331 327 314 301 288 273 222 178 167 238 184 163 -0 4 326 339 290 298 198 189 203 128 162 184 109 293 340 345 120 118 99 92 122 121 178 160 152 142 141
347 346 347 353 351 340 341 337 345 332 322 273 185 171 164 228 171 85 343 336 319 313 311 251 200 172 173 143 193 133 45 16 348 326 102 107 117 70 46 222 153 151 152 146 156
359 350 352 348 350 346 348 332 321 341 337 12 169 158 144 216 98 2 335 327 171 330 253 230 164 176 170 175 122 94 80 49 7 18 55 82 64 126 45 83 117 133 144 156 155
359 356 347 346 348 349 8 9 358 342 357 340 15 165 163 177 357 22 349 337 87 32 270 200 216 199 153 162 142 131 97 64 30 31 44 89 67 91 272 127 118 134 153 158 139
355 349 342 345 350 354 12 25 43 33 342 354 246 182 51 101 332 17 355 313 165 176 311 265 336 220 151 119 150 140 92 51 14 7 57 50 26 120 169 119 128 144 146 143 151
343 345 339 346 354 349 3 13 64 36 37 57 61 71 61 315 306 7 319 318 255 319 310 286 248 263 199 154 60 90 73 104 313 6 354 41 224 175 173 141 160 166 163 153 154
341 346 343 341 349 357 18 75 65 64 30 21 38 58 93 311 342 36 17 314 99 10 328 276 275 165 65 97 45 357 151 113 115 32 114 65 198 155 180 152 182 193 183 165 166
342 340 338 338 336 327 252 235 64 36 41 31 54 75 8 73 26 74 323 314 98 117 287 207 134 89 74 97 180 168 108 93 143 216 105 161 150 175 190 177 192 204 199 191 190
342 342 342 339 339 337 347 68 57 13 35 18 85 93 33 336 257 46 6 342 86 104 218 280 93 169 194 158 158 147 117 110 100 171 120 200 193 209 202 193 204 215 216 209 205
341 340 341 341 339 333 31 76 44 136 57 12 29 29 33 343 99 94 290 87 146 163 241 39 155 201 193 210 192 140 117 83 69 152 125 190 246 228 191 207 201 205 214 213 212
328 331 337 339 334 39 59 83 137 157 78 2 356 345 320 336 72 142 209 134 136 137 229 124 212 181 140 175 159 126 145 164 147 139 347 159 305 235 235 204 200 218 211 200 199
326 322 329 333 48 303 68 143 79 138 79 11 349 29 321 355 37 184 169 142 159 181 137 118 209 141 110 97 101 95 254 131 131 102 168 124 255 290 238 225 195 209 210 200 128
320 316 315 350 250 54 165 166 139 53 62 334 349 307 263 91 171 167 144 325 184 218 103 266 52 106 69 326 326 146 137 126 127 100 94 316 75 273 60 137 167 173 178 197 143
314 314 319 56 333 152 131 16 72 44 31 5 303 46 70 54 90 300 176 208 116 84 72 75 7 62 89 32 344 143 90 49 54 68 47 249 127 289 246 177 132 39 81 109 101
305 303 300 284 222 197 92 83 47 65 312 346 28 69 78 68 61 100 78 57 134 82 28 21 30 356 30 56 2 50 58 28 19 17 206 303 63 233 91 70 138 122 124 131 121
306 298 271 224 314 95 79 58 68 341 59 206 178 147 120 165 183 297 172 64 23 84 89 109 352 1 332 69 171 74 136 150 163 169 219 358 228 262 158 122 117 107 130 135 161
333 299 249 199 173 100 81 50 140 167 115 119 348 88 169 181 154 80 81 101 74 35 123 131 359 305 1 15 78 183 39 171 107 42 76 219 268 350 74 101 114 127 144 193 208
17 315 245 168 142 88 73 106 110 110 133 185 181 212 85 108 182 143 56 339 140 88 104 163 98 0 283 351 33 117 156 63 0 124 193 298 193 227 168 163 133 100 123 136 159
55 16 225 139 93 54 94 95 123 173 312 50 27 108 111 72 295 87 22 345 5 44 35 130 89 307 54 295 186 91 15 59 117 126 153 147 260 217 180 157 141 162 169 208 240
57 24 212 101 52 66 64 89 320 140 221 331 24 63 95 21 37 70 124 351 2 8 30 31 113 117 221 310 328 187 163 142 117 223 184 139 259 159 150 157 142 104 65 28 58
34 240 20 79 99 354 211 97 91 59 63 342 112 62 40 96 100 101 90 46 12 45 183 3 75 88 350 348 342 229 209 126 116 75 201 131 249 201 156 120 146 115 90 32 18
67 22 331 36 170 128 130 136 116 208 102 4 4 6 73 72 72 129 110 45 27 106 258 204 100 150 181 199 141 182 198 173 124 113 189 210 169 202 178 168 128 82 68 38 19
58 249 193 326 337 44 73 168 134 126 343 195 43 52 34 120 105 110 115 156 244 180 317 94 118 79 17 61 65 119 181 187 179 204 154 179 130 187 196 197 159 109 49 20 10
93 61 356 266 345 22 351 344 139 62 62 36 105 52 50 94 128 146 134 162 188 237 100 28 152 105 10 20 77 265 250 210 211 229 261 246 274 196 174 119 74 35 11 356 41
319 15 100 285 326 74 250 130 104 108 353 50 27 94 68 107 79 61 92 81 109 142 145 100 127 96 220 313 339 294 217 194 194 190 166 203 215 162 97 86 32 345 43 53 340